| time (UTC) | temp C | wind direction | speed KPH | gust KPH | rain 1hr cm | rain 24hr cm | rain mn cm | humidity % | barometer mb |
| 20260905012517 | 23 | 0.0 | 0.0 | 0.00 | 0.08 | 0.08 | 88 | 1015.5 | |
| 20260905011517 | 24 | 0.0 | 0.0 | 0.00 | 0.08 | 0.08 | 87 | 1015.5 | |
| 20260905010557 | 24 | 0.0 | 0.0 | 0.00 | 0.08 | 0.08 | 86 | 1015.5 | |
| 20260905004537 | 25 | 0.0 | 0.0 | 0.00 | 0.08 | 0.08 | 84 | 1015.6 | |
| 20260905003517 | 25 | 0.0 | 0.0 | 0.00 | 0.08 | 0.08 | 84 | 1015.6 | |
| 20260905002537 | 25 | 0.0 | 0.0 | 0.00 | 0.08 | 0.08 | 83 | 1015.8 | |
| 20260905001537 | 25 | 0.0 | 0.0 | 0.00 | 0.08 | 0.08 | 82 | 1016.1 | |
| 20260905000557 | 26 | 0.0 | 0.0 | 0.00 | 0.08 | 0.08 | 82 | 1016.4 | |
| 20260904235637 | 26 | 0.0 | 1.6 | 0.00 | 0.08 | 0.08 | 80 | 1016.8 | |
| 20260904234537 | 26 | 0.0 | 3.2 | 0.00 | 0.08 | 0.08 | 79 | 1016.7 | |
| 20260904233517 | 26 | 45 | 4.8 | 12.9 | 0.00 | 0.08 | 0.08 | 77 | 1016.9 |
| 20260904232517 | 27 | 23 | 1.6 | 6.4 | 0.00 | 0.08 | 0.08 | 71 | 1016.7 |
| 20260904231517 | 27 | 45 | 1.6 | 9.7 | 0.00 | 0.08 | 0.08 | 69 | 1016.2 |
| 20260904230517 | 27 | 293 | 1.6 | 9.7 | 0.00 | 0.08 | 0.08 | 68 | 1016.3 |
| 20260904225517 | 28 | 45 | 1.6 | 11.3 | 0.00 | 0.08 | 0.08 | 67 | 1016.5 |
| 20260904224617 | 29 | 23 | 4.8 | 12.9 | 0.00 | 0.08 | 0.08 | 67 | 1016.6 |
| 20260904223516 | 30 | 45 | 3.2 | 19.3 | 0.00 | 0.08 | 0.08 | 65 | 1016.7 |
| 20260904222517 | 32 | 45 | 1.6 | 8.0 | 0.00 | 0.08 | 0.08 | 63 | 1016.5 |
| 20260904221537 | 34 | 23 | 1.6 | 4.8 | 0.00 | 0.08 | 0.08 | 62 | 1016.2 |
| 20260904220516 | 33 | 0.0 | 1.6 | 0.00 | 0.08 | 0.08 | 64 | 1015.9 | |
| 20260904215537 | 33 | 0.0 | 0.0 | 0.00 | 0.08 | 0.08 | 64 | 1015.5 | |
| 20260904214516 | 33 | 0.0 | 3.2 | 0.00 | 0.08 | 0.08 | 61 | 1015.3 | |
| 20260904213537 | 33 | 0.0 | 1.6 | 0.00 | 0.08 | 0.08 | 62 | 1015.1 | |
| 20260904212516 | 34 | 0.0 | 0.0 | 0.00 | 0.08 | 0.08 | 61 | 1015.4 | |
| 20260904211516 | 35 | 0.0 | 0.0 | 0.00 | 0.08 | 0.08 | 57 | 1015.5 | |
| 20260904210536 | 35 | 0.0 | 0.0 | 0.00 | 0.08 | 0.08 | 55 | 1015.7 | |
| 20260904205617 | 36 | 248 | 1.6 | 4.8 | 0.00 | 0.08 | 0.08 | 51 | 1015.6 |
| 20260904204516 | 37 | 315 | 1.6 | 3.2 | 0.00 | 0.08 | 0.08 | 50 | 1015.6 |
| 20260904203516 | 37 | 45 | 1.6 | 4.8 | 0.03 | 0.10 | 0.08 | 49 | 1015.3 |
| 20260904202516 | 37 | 113 | 3.2 | 11.3 | 0.03 | 0.10 | 0.08 | 51 | 1015.4 |
| 20260904201516 | 37 | 315 | 1.6 | 8.0 | 0.03 | 0.10 | 0.08 | 54 | 1015.5 |
| 20260904200536 | 36 | 113 | 1.6 | 8.0 | 0.03 | 0.10 | 0.08 | 56 | 1015.6 |
| 20260904195556 | 37 | 113 | 1.6 | 3.2 | 0.03 | 0.10 | 0.08 | 52 | 1015.8 |
| 20260904194617 | 36 | 315 | 1.6 | 8.0 | 0.03 | 0.13 | 0.08 | 52 | 1016.0 |
| 20260904193556 | 36 | 248 | 3.2 | 6.4 | 0.00 | 0.10 | 0.05 | 50 | 1016.1 |
| 20260904192536 | 36 | 315 | 1.6 | 8.0 | 0.00 | 0.10 | 0.05 | 53 | 1016.4 |
| 20260904191656 | 36 | 113 | 1.6 | 9.7 | 0.00 | 0.10 | 0.05 | 51 | 1016.7 |
| 20260904190636 | 36 | 315 | 1.6 | 6.4 | 0.00 | 0.10 | 0.05 | 52 | 1016.6 |
| 20260904185536 | 36 | 315 | 3.2 | 8.0 | 0.00 | 0.10 | 0.05 | 49 | 1016.9 |
| 20260904184556 | 36 | 0.0 | 3.2 | 0.00 | 0.10 | 0.05 | 54 | 1017.1 | |
| 20260904183516 | 36 | 293 | 1.6 | 6.4 | 0.00 | 0.10 | 0.05 | 53 | 1017.3 |
| 20260904182556 | 35 | 293 | 1.6 | 8.0 | 0.00 | 0.10 | 0.05 | 54 | 1017.4 |
| 20260904181516 | 35 | 293 | 1.6 | 6.4 | 0.00 | 0.10 | 0.05 | 58 | 1017.5 |
| 20260904175516 | 35 | 315 | 1.6 | 4.8 | 0.00 | 0.10 | 0.05 | 58 | 1017.7 |
| 20260904174516 | 35 | 0.0 | 3.2 | 0.00 | 0.10 | 0.05 | 61 | 1017.8 | |
| 20260904173536 | 35 | 0.0 | 3.2 | 0.00 | 0.10 | 0.05 | 60 | 1017.9 | |
| 20260904172516 | 34 | 248 | 1.6 | 6.4 | 0.00 | 0.10 | 0.05 | 63 | 1017.9 |
| 20260904171536 | 34 | 23 | 1.6 | 8.0 | 0.00 | 0.10 | 0.05 | 62 | 1018.0 |
| 20260904170536 | 33 | 293 | 1.6 | 4.8 | 0.00 | 0.10 | 0.05 | 65 | 1018.1 |
| 20260904165556 | 33 | 248 | 1.6 | 6.4 | 0.00 | 0.10 | 0.05 | 64 | 1018.2 |
| 20260904164536 | 33 | 45 | 1.6 | 4.8 | 0.00 | 0.10 | 0.05 | 68 | 1018.3 |
| 20260904163516 | 33 | 0.0 | 3.2 | 0.00 | 0.10 | 0.05 | 69 | 1018.4 | |
| 20260904162516 | 33 | 270 | 1.6 | 4.8 | 0.00 | 0.10 | 0.05 | 70 | 1018.6 |
| 20260904161536 | 32 | 315 | 1.6 | 8.0 | 0.00 | 0.10 | 0.05 | 71 | 1018.7 |
| 20260904160556 | 32 | 0.0 | 1.6 | 0.00 | 0.10 | 0.05 | 73 | 1018.8 | |
| 20260904155536 | 32 | 293 | 1.6 | 6.4 | 0.00 | 0.10 | 0.05 | 72 | 1018.8 |
| 20260904154516 | 31 | 0.0 | 3.2 | 0.00 | 0.10 | 0.05 | 74 | 1018.9 | |
| 20260904153516 | 31 | 23 | 1.6 | 6.4 | 0.00 | 0.10 | 0.05 | 74 | 1018.8 |
| 20260904152516 | 31 | 45 | 1.6 | 9.7 | 0.00 | 0.10 | 0.05 | 76 | 1018.9 |
| 20260904151516 | 31 | 0.0 | 1.6 | 0.00 | 0.10 | 0.05 | 77 | 1018.9 | |
| 20260904150516 | 30 | 0.0 | 1.6 | 0.00 | 0.10 | 0.05 | 77 | 1018.9 | |
| 20260904145516 | 30 | 0.0 | 1.6 | 0.00 | 0.10 | 0.05 | 79 | 1019.0 | |
| 20260904144556 | 30 | 0.0 | 3.2 | 0.00 | 0.10 | 0.05 | 79 | 1019.0 | |
| 20260904143516 | 29 | 0.0 | 4.8 | 0.00 | 0.10 | 0.05 | 80 | 1018.9 | |
| 20260904142516 | 29 | 0.0 | 3.2 | 0.00 | 0.10 | 0.05 | 82 | 1019.2 | |
| 20260904141516 | 28 | 0.0 | 3.2 | 0.00 | 0.10 | 0.05 | 83 | 1019.0 | |
| 20260904140516 | 28 | 0.0 | 4.8 | 0.00 | 0.10 | 0.05 | 85 | 1019.0 | |
| 20260904135536 | 27 | 0.0 | 1.6 | 0.00 | 0.10 | 0.05 | 87 | 1019.0 | |
| 20260904134516 | 27 | 0.0 | 6.4 | 0.03 | 0.10 | 0.05 | 88 | 1018.8 | |
| 20260904133516 | 27 | 0.0 | 3.2 | 0.03 | 0.10 | 0.05 | 89 | 1018.9 | |
| 20260904132556 | 26 | 0.0 | 3.2 | 0.03 | 0.10 | 0.05 | 90 | 1019.0 | |
| 20260904131536 | 26 | 0.0 | 1.6 | 0.03 | 0.10 | 0.05 | 93 | 1019.1 | |
| 20260904130536 | 25 | 0.0 | 1.6 | 0.03 | 0.13 | 0.05 | 95 | 1019.1 | |
| 20260904125516 | 24 | 0.0 | 0.0 | 0.03 | 0.13 | 0.05 | 97 | 1019.0 | |
| 20260904124515 | 23 | 0.0 | 3.2 | 0.00 | 0.10 | 0.03 | 99 | 1019.0 | |
| 20260904123616 | 23 | 0.0 | 1.6 | 0.00 | 0.10 | 0.03 | 100 | 1019.1 | |
| 20260904122556 | 23 | 0.0 | 0.0 | 0.00 | 0.10 | 0.03 | 100 | 1019.1 | |
| 20260904121556 | 22 | 0.0 | 0.0 | 0.00 | 0.10 | 0.03 | 99 | 1018.9 | |
| 20260904120515 | 22 | 0.0 | 0.0 | 0.00 | 0.10 | 0.03 | 99 | 1018.8 | |
| 20260904115535 | 22 | 0.0 | 0.0 | 0.00 | 0.10 | 0.03 | 99 | 1018.9 | |
| 20260904114636 | 22 | 0.0 | 0.0 | 0.00 | 0.10 | 0.03 | 99 | 1018.9 | |
| 20260904113515 | 21 | 0.0 | 0.0 | 0.00 | 0.10 | 0.03 | 99 | 1018.7 | |
| 20260904112616 | 21 | 0.0 | 0.0 | 0.00 | 0.10 | 0.03 | 99 | 1018.7 | |
| 20260904111515 | 21 | 0.0 | 0.0 | 0.00 | 0.10 | 0.03 | 98 | 1018.6 | |
| 20260904105535 | 21 | 0.0 | 0.0 | 0.00 | 0.10 | 0.03 | 98 | 1018.7 | |
| 20260904104515 | 21 | 0.0 | 0.0 | 0.00 | 0.10 | 0.03 | 98 | 1018.6 | |
| 20260904103515 | 21 | 0.0 | 0.0 | 0.00 | 0.10 | 0.03 | 98 | 1018.6 | |
| 20260904102657 | 21 | 0.0 | 0.0 | 0.00 | 0.10 | 0.03 | 98 | 1018.6 | |
| 20260904101515 | 21 | 0.0 | 0.0 | 0.00 | 0.10 | 0.03 | 98 | 1018.7 | |
| 20260904100515 | 21 | 0.0 | 0.0 | 0.00 | 0.10 | 0.03 | 98 | 1018.6 | |
| 20260904095515 | 22 | 0.0 | 0.0 | 0.00 | 0.10 | 0.03 | 98 | 1018.6 | |
| 20260904094535 | 22 | 0.0 | 0.0 | 0.00 | 0.10 | 0.03 | 98 | 1018.6 | |
| 20260904093615 | 22 | 0.0 | 0.0 | 0.00 | 0.10 | 0.03 | 98 | 1018.4 | |
| 20260904092515 | 22 | 0.0 | 0.0 | 0.00 | 0.10 | 0.03 | 98 | 1018.4 | |
| 20260904091515 | 22 | 0.0 | 0.0 | 0.00 | 0.10 | 0.03 | 98 | 1018.3 | |
| 20260904090515 | 22 | 0.0 | 0.0 | 0.00 | 0.10 | 0.03 | 98 | 1018.1 | |
| 20260904085515 | 22 | 0.0 | 0.0 | 0.00 | 0.10 | 0.03 | 98 | 1017.9 | |
| 20260904084636 | 22 | 0.0 | 0.0 | 0.00 | 0.13 | 0.03 | 98 | 1017.9 | |
| 20260904083517 | 22 | 0.0 | 0.0 | 0.00 | 0.13 | 0.03 | 98 | 1017.8 | |
| 20260904082517 | 22 | 0.0 | 0.0 | 0.00 | 0.13 | 0.03 | 98 | 1017.7 | |
| 20260904081617 | 22 | 0.0 | 0.0 | 0.00 | 0.13 | 0.03 | 98 | 1017.7 | |
| 20260904075517 | 22 | 0.0 | 0.0 | 0.00 | 0.13 | 0.03 | 98 | 1017.8 | |
| 20260904074557 | 22 | 0.0 | 0.0 | 0.00 | 0.13 | 0.03 | 98 | 1017.9 | |
| 20260904073659 | 22 | 0.0 | 0.0 | 0.00 | 0.13 | 0.03 | 98 | 1017.8 | |
| 20260904072517 | 22 | 0.0 | 0.0 | 0.03 | 0.13 | 0.03 | 98 | 1017.9 | |
| 20260904071659 | 22 | 0.0 | 0.0 | 0.03 | 0.13 | 0.03 | 98 | 1018.1 | |
| 20260904070617 | 22 | 0.0 | 0.0 | 0.03 | 0.13 | 0.03 | 97 | 1018.1 | |
| 20260904065517 | 22 | 0.0 | 0.0 | 0.03 | 0.13 | 0.03 | 97 | 1018.3 | |
| 20260904064537 | 22 | 0.0 | 0.0 | 0.03 | 0.13 | 0.03 | 97 | 1018.4 | |
| 20260904063517 | 22 | 0.0 | 0.0 | 0.03 | 0.13 | 0.03 | 97 | 1018.6 | |
| 20260904062557 | 22 | 0.0 | 0.0 | 0.00 | 0.10 | 0.00 | 97 | 1018.7 | |
| 20260904061557 | 22 | 0.0 | 0.0 | 0.00 | 0.10 | 0.00 | 97 | 1018.7 | |
| 20260904060537 | 22 | 0.0 | 0.0 | 0.00 | 0.10 | 0.00 | 97 | 1018.9 | |
| 20260904055517 | 22 | 0.0 | 0.0 | 0.00 | 0.10 | 0.00 | 97 | 1018.9 | |
| 20260904054517 | 22 | 0.0 | 0.0 | 0.00 | 0.10 | 0.00 | 97 | 1019.1 | |
| 20260904053517 | 22 | 0.0 | 0.0 | 0.00 | 0.10 | 0.00 | 97 | 1019.1 | |
| 20260904052517 | 23 | 0.0 | 0.0 | 0.00 | 0.10 | 0.00 | 96 | 1019.2 | |
| 20260904051517 | 23 | 0.0 | 0.0 | 0.00 | 0.10 | 0.00 | 96 | 1019.3 | |
| 20260904050517 | 23 | 0.0 | 0.0 | 0.00 | 0.10 | 0.00 | 96 | 1019.4 | |
| 20260904045517 | 23 | 0.0 | 0.0 | 0.00 | 0.13 | 0.00 | 96 | 1019.4 | |
| 20260904044537 | 23 | 0.0 | 0.0 | 0.00 | 0.13 | 0.00 | 96 | 1019.4 | |
| 20260904043517 | 23 | 0.0 | 0.0 | 0.00 | 0.13 | 0.00 | 96 | 1019.4 | |
| 20260904042617 | 23 | 0.0 | 0.0 | 0.00 | 0.13 | 0.00 | 96 | 1019.2 | |
| 20260904041517 | 23 | 0.0 | 0.0 | 0.00 | 0.13 | 0.00 | 95 | 1019.1 | |
| 20260904040537 | 23 | 0.0 | 0.0 | 0.00 | 0.13 | 0.00 | 95 | 1018.9 | |
| 20260904035656 | 23 | 0.0 | 0.0 | 0.00 | 0.13 | 0.13 | 95 | 1018.9 | |
| 20260904034517 | 23 | 0.0 | 0.0 | 0.00 | 0.13 | 0.13 | 94 | 1018.9 | |
| 20260904033537 | 23 | 0.0 | 0.0 | 0.00 | 0.13 | 0.13 | 94 | 1019.1 | |
| 20260904032537 | 23 | 0.0 | 0.0 | 0.00 | 0.13 | 0.13 | 94 | 1019.1 | |
| 20260904031537 | 23 | 0.0 | 0.0 | 0.00 | 0.13 | 0.13 | 94 | 1019.1 | |
| 20260904030537 | 24 | 0.0 | 0.0 | 0.00 | 0.13 | 0.13 | 94 | 1019.1 | |
| 20260904025557 | 24 | 0.0 | 0.0 | 0.00 | 0.13 | 0.13 | 93 | 1019.0 | |
| 20260904024517 | 24 | 0.0 | 0.0 | 0.00 | 0.15 | 0.13 | 93 | 1019.0 | |
| 20260904023517 | 24 | 0.0 | 0.0 | 0.00 | 0.15 | 0.13 | 92 | 1019.0 | |
| 20260904022617 | 24 | 0.0 | 0.0 | 0.00 | 0.15 | 0.13 | 92 | 1019.0 | |
| 20260904021517 | 25 | 0.0 | 0.0 | 0.00 | 0.15 | 0.13 | 91 | 1019.0 | |
| 20260904020517 | 25 | 0.0 | 0.0 | 0.00 | 0.15 | 0.13 | 91 | 1019.2 | |
| 20260904015517 | 25 | 0.0 | 0.0 | 0.00 | 0.15 | 0.13 | 91 | 1018.9 | |
| 20260904014537 | 25 | 0.0 | 0.0 | 0.00 | 0.15 | 0.13 | 89 | 1018.8 | |
| 20260904013557 | 25 | 0.0 | 0.0 | 0.00 | 0.15 | 0.13 | 89 | 1018.7 |